Selinsgrove, PA

7:56 PM EDT on April 28, 2017 (GMT -0400)
Penn Valley

Weather History for KSEG - November, 2013

Change the Weather History Date:

Saturday, November 9, 2013

  Actual Average (KIPT) Record (KIPT)
Temperature  
Mean Temperature 40 °F -  
Max Temperature 52 °F 49 °F 73 °F (1895)
Min Temperature 28 °F 32 °F 19 °F (1971)
Degree Days  
Heating Degree Days 25    
Moisture  
Dew Point 27 °F    
Average Humidity 63    
Maximum Humidity 89    
Minimum Humidity 40    
Precipitation  
Precipitation 0.00 in - - ()
Sea Level Pressure  
Sea Level Pressure 30.17 in    
Wind  
Wind Speed 3 mph (SSW)    
Max Wind Speed 12 mph    
Max Gust Speed -    
Visibility 10 miles    
Events      
Averages and records for this station are not official NWS values.
T = Trace of Precipitation, MM = Missing Value Source: NWS Daily Summary

Daily Weather History Graph

Daily Weather History Graph

Search for Another Location

Airport or City:

Trip Planner

Search our weather history database for the weather conditions in past years. The results will help you decide how hot, cold, wet, or windy it might be!

Date:

Astronomy

Nov. 09, 2013 Rise Set
Actual Time 6:47 AM EST 4:54 PM EST
Civil Twilight 6:18 AM EST 5:23 PM EST
Nautical Twilight 5:45 AM EST 5:56 PM EST
Astronomical Twilight 5:13 AM EST 6:28 PM EST
Moon 12:22 PM EST (11/9) 11:22 PM EST (11/9)
Length of Visible Light 11h 04m
Length of Day
10h 06m
Waxing Crescent, 44% of the Moon is Illuminated
Nov 9
Waxing Crescent
Nov 10
First Quarter
Nov 17
Full
Nov 25
Last Quarter
Dec 2
New

Hourly Weather History & Observations

Time (EST) Temp. Windchill Dew Point Humidity Pressure Visibility Wind Dir Wind Speed Gust Speed Precip Events Conditions
12:53 AM 37.0 °F - 28.9 °F 73% 30.29 in 10.0 mi Calm Calm - N/A   Overcast
1:53 AM 30.9 °F 27.5 °F 26.1 °F 82% 30.28 in 10.0 mi NW 3.5 mph - N/A   Partly Cloudy
2:53 AM 28.9 °F - 25.0 °F 85% 30.30 in 10.0 mi Calm Calm - N/A   Clear
3:53 AM 28.0 °F - 25.0 °F 88% 30.31 in 10.0 mi Calm Calm - N/A   Clear
4:53 AM 28.0 °F 24.2 °F 25.0 °F 88% 30.31 in 10.0 mi NW 3.5 mph - N/A   Clear
5:53 AM 28.0 °F - 25.0 °F 88% 30.31 in 10.0 mi Calm Calm - N/A   Clear
6:53 AM 30.9 °F - 28.0 °F 89% 30.31 in 10.0 mi Calm Calm - N/A   Mostly Cloudy
7:53 AM 34.0 °F - 30.0 °F 85% 30.33 in 10.0 mi Calm Calm - N/A   Mostly Cloudy
8:53 AM 37.0 °F 33.3 °F 28.0 °F 70% 30.30 in 10.0 mi SSW 4.6 mph - N/A   Clear
9:53 AM 41.0 °F 39.0 °F 28.0 °F 60% 30.30 in 10.0 mi Variable 3.5 mph - N/A   Clear
10:53 AM 44.1 °F - 27.0 °F 51% 30.26 in 10.0 mi Calm Calm - N/A   Clear
11:53 AM 48.0 °F - 27.0 °F 44% 30.21 in 10.0 mi South 6.9 mph - N/A   Clear
12:53 PM 50.0 °F - 27.0 °F 41% 30.16 in 10.0 mi South 6.9 mph - N/A   Clear
1:53 PM 52.0 °F - 28.0 °F 40% 30.12 in 10.0 mi South 9.2 mph - N/A   Clear
2:53 PM 48.9 °F - 28.0 °F 44% 30.10 in 10.0 mi South 10.4 mph - N/A   Clear
3:53 PM 48.9 °F - 28.0 °F 44% 30.07 in 10.0 mi South 8.1 mph - N/A   Mostly Cloudy
4:53 PM 48.9 °F - 27.0 °F 43% 30.05 in 10.0 mi South 11.5 mph - N/A   Clear
5:53 PM 46.9 °F - 27.0 °F 46% 30.05 in 10.0 mi South 6.9 mph - N/A   Scattered Clouds
6:53 PM 46.0 °F 43.1 °F 27.0 °F 47% 30.05 in 10.0 mi South 5.8 mph - N/A   Clear
7:53 PM 44.1 °F 41.5 °F 28.0 °F 53% 30.04 in 10.0 mi SW 4.6 mph - N/A   Clear
8:53 PM 42.1 °F 40.2 °F 30.0 °F 62% 30.02 in 10.0 mi SW 3.5 mph - N/A   Overcast
9:53 PM 43.0 °F 40.3 °F 28.0 °F 56% 30.00 in 10.0 mi South 4.6 mph - N/A   Mostly Cloudy
10:53 PM 41.0 °F 39.0 °F 28.9 °F 62% 29.97 in 10.0 mi SSW 3.5 mph - N/A   Scattered Clouds
11:53 PM 39.9 °F 37.8 °F 28.0 °F 63% 29.96 in 10.0 mi Variable 3.5 mph - N/A   Mostly Cloudy